Other Public Products
Issued by NWS Grand Forks, ND

Home | Current Version | Previous Version | Graphics & Text | Print | Product List | Glossary On
Versions: 1 2 3 4 5 6 7 8 9 10 11 12 13 14 15 16 17 18 19 20 21 22 23 24 25 26 27 28 29 30 31 32 33 34 35 36 37 38 39 40 41 42 43 44 45 46 47 48 49 50
390
FPUS83 KFGF 230710
OPUFGF
PRAIRIE TO PINES WEATHER ROUNDUP
NATIONAL WEATHER SERVICE EASTERN NORTH DAKOTA/GRAND FORKS ND
200 AM CDT SUN APR 23 2017

 **SATELLITE DATA USED TO AUGMENT SKY COVER AT AUTOMATED STATIONS**
 *****  WEATHER ACROSS EASTERN NORTH DAKOTA  *****

CITY           SKY/WX    TMP DP  RH WIND       PRES   REMARKS
GRAND FORKS    CLOUDY    34  24  67 N17       30.24S WCI  23
GRAND FORKS AF CLOUDY    32  20  63 NE15      30.25R WCI  21
GRAND CITY NWS NOT AVBL
BUXTON         NOT AVBL
DEVILS LAKE    MIX PCPN  31  23  72 NE18      30.24R WCI  19
FARGO          CLOUDY    36  33  89 N16       30.17F
WAHPETON ARPT  CLOUDY    39  34  81 N15G28    30.13R
$$

 *****  WEATHER ACROSS CENTRAL AND WESTERN NORTH DAKOTA  *****

CITY           SKY/WX    TMP DP  RH WIND       PRES   REMARKS
JAMESTOWN      CLOUDY    33  29  85 NE20      30.17S WCI  21
BISMARCK       CLOUDY    37  32  82 E17G28    30.13F
MINOT          FLURRIES  32  26  78 NE14      30.20S WCI  22
MINOT AFB      CLOUDY    31  27  83 E17       30.20S WCI  20
GARRISON         N/A     33  28  81 E16       30.14F WCI  23
WILLISTON      CLOUDY    38  32  79 E14G25    30.12S
DICKINSON      CLOUDY    35  32  88 NE17      30.04S WCI  25
HETTINGER      CLOUDY    40  37  89 E22G30    30.00F
$$

 *****  OTHER OBSERVATIONS NORTHEAST NORTH DAKOTA  *****

CITY           SKY/WX    TMP DP  RH WIND       PRES   REMARKS
WALHALLA       NOT AVBL
LANGDON        PTSUNNY   28  18  64 NE20      30.24S WCI  15
CAVALIER       PTSUNNY   30  21  69 N12G20    30.28S WCI  21
GRAFTON        CLOUDY    30  23  74 N14G21    30.29R WCI  20
CANDO          NOT AVBL
FORT TOTTEN      N/A     31  27  86 NE8       29.95S WCI  23
ROLLA          CLOUDY    28  25  86 E15       30.25R WCI  17
RUGBY          NOT AVBL
 ***** THE ABOVE OBSERVATIONS ARE NON NWS ARE NOT QUALITY
        CONTROLLED AND MAY MIS-REPORT RAIN FOR SNOW...
$$

 *****  OTHER OBSERVATIONS SOUTHEAST NORTH DAKOTA *****

CITY           SKY/WX    TMP DP  RH WIND       PRES   REMARKS
COOPERSTOWN    FLURRIES  32  27  80 NE22      30.20S WCI  19
VALLEY CITY    CLOUDY    30  30 100 NE18G26   30.20F WCI  18
OAKES          NOT AVBL
GWINNER          N/A     36  32  87 MISG      30.16R
SHEYENNE NWR     N/A     35  31  84 NE14      29.95S
BUFFALO        NOT AVBL
WYNDMERE         N/A     39  36  87 VRB18       N/A
 ***** THE ABOVE OBSERVATIONS ARE NON NWS ARE NOT QUALITY
       CONTROLLED AND MAY MIS-REPORT RAIN FOR SNOW...
$$

  *****  WEATHER ACROSS NORTHERN MINNESOTA  *****

CITY           SKY/WX    TMP DP  RH WIND       PRES   REMARKS
FLAG ISLAND    FAIR      32  23  69 N20       30.24S WCI  20
WARROAD        FAIR      30  23  74 N9        30.25R WCI  22
ROSEAU         FAIR      30  21  69 N10       30.25R WCI  21
HALLOCK        CLOUDY    30  18  59 NE15      30.27S WCI  19
THF RVR FALLS  CLOUDY    31  25  78 N15       30.22S WCI  20
HALSTAD          N/A     33  30  90 NE14        N/A  WCI  23
FOSSTON        CLOUDY    30  28  93 N12       30.19R WCI  21
BAUDETTE       CLOUDY    33  25  72 N6        30.21S
WASKISH        CLOUDY    32  30  93 NE6       30.20S
CROOKSTON      CLOUDY    34  23  64 NE13      30.22F WCI  25
$$
  *****  WEATHER ACROSS CENTRAL AND WEST MINNESOTA  *****

CITY           SKY/WX    TMP DP  RH WIND       PRES   REMARKS
BEMIDJI        LGT RAIN  34  33  96 N8        30.16S
PARK RAPIDS    CLOUDY    39  32  76 NE12      30.13F
WADENA         FAIR      41  34  75 NE13      30.11S
DETROIT LAKES  FAIR      39  36  87 NE14      30.14R
MOORHEAD       CLOUDY    37  34  87 N18       30.16F
FERGUS FALLS   FAIR      46  37  71 E13G23    30.10R
ELBOW LAKE     PTSUNNY   47  41  80 E14G21    30.08S
MORRIS MN      FAIR      43  39  87 NW12      30.08R
STAPLES        CLOUDY    43  36  75 NE14G21   30.11S
WHEATON        FAIR      41  37  87 NW12      30.14R
$$
  *****  WEATHER ELSEWHERE ACROSS MINNESOTA  *****

CITY           SKY/WX    TMP DP  RH WIND       PRES   REMARKS
DULUTH         CLOUDY    43  38  82 N13       30.08R
INTRNTL FALLS  CLOUDY    33  23  66 NE8       30.19S
ELY            RAIN      34  34 100 N5        30.13R
CLOQUET        CLOUDY    45  36  70 N7G17     30.09F
BRAINERD       MOCLDY    46  37  71 N14       30.11R
HIBBING        RAIN      36  35  96 N12       30.13R FOG
ALEXANDRIA     MOCLDY    50  40  68 N12       30.08R
SAINT CLOUD    FAIR      50  38  63 SW7       30.05S
MINNEAPOLIS    FAIR      54  36  50 SW7       30.07F
$$

  *****  WEATHER ACROSS SOUTH DAKOTA  *****

CITY           SKY/WX    TMP DP  RH WIND       PRES   REMARKS
SIOUX FALLS    FAIR      51  36  56 SW5       30.13F
BROOKINGS      FAIR      45  37  73 S9        30.11F
WATERTOWN      FAIR      49  37  63 SW12      30.07S
HURON          FAIR      48  38  68 S12       30.09S
SISSETON         N/A     39  36  89 N13       30.12S
ABERDEEN       FAIR      38  32  79 NE16      30.13R
MITCHELL       FAIR      52  36  54 S12       30.11S
PIERRE         FAIR      52  30  43 S12       30.02F
MOBRIDGE       CLOUDY    46  39  76 E25       30.01S
RAPID CITY     FAIR      43  31  62 S9        29.99F
$$

  *****  SOME WEATHER IN NEARBY STATES *****

CITY           SKY/WX    TMP DP  RH WIND       PRES   REMARKS
GLASGOW MT     FAIR      40  34  79 E26G33    29.98F
GREAT FALLS MT MOCLDY    45  39  79 NE8       29.86F
CHEYENNE WY    FAIR      38  29  70 S14       30.11F
SCOTTSBLUFF NE FAIR      41  28  60 E8        30.10F
OMAHA NE       FAIR      46  36  68 CALM      30.19S
DES MOINES IA  FAIR      48  31  51 CALM      30.17S
DAVENPORT IA   FAIR      42  32  67 S3        30.14F
CHICAGO IL     FAIR      40  27  59 CALM      30.13F
EAU CLAIRE WI  FAIR      44  36  73 SW5       30.07F
LA CROSSE WI   FAIR      49  41  74 SE6       30.11F
$$

  *****  SOME NATIONAL WEATHER *****

CITY           SKY/WX    TMP DP  RH WIND       PRES   REMARKS
LA GUARDIA NY  FAIR      50  38  63 NW3       30.03R
RALEIGH NC     CLOUDY    55  53  93 NE9       29.98F
ATLANTA GA     MOCLDY    65  58  78 E7        29.84F
NEW ORLEANS LA CLOUDY    67  62  84 N10       29.90S
OKLAHOMA CITY  FAIR      47  41  80 NW9       30.17F
ALBUQUERQUE NM FAIR      49  28  44 E23G31    30.24R
SALT LAKE CITY FAIR      49  36  61 E7        29.96F
LOS ANGELES CA FAIR      63  56  78 S7        29.84S
BOISE ID       CLOUDY    59  33  37 S15       29.84R
SEATTLE WA     FAIR      48  45  89 S8        29.97S
$$

*** WEATHER ACROSS MANITOBA...SASKATCHEWAN AND ONTARIO ***
                ***ONTARIO***

CITY           SKY/WX    TMP DP  RH WIND       PRES   REMARKS
GERALDTON      CLOUDY    23  19  86 N8        30.09S WCI  14
THUNDER BAY    CLOUDY    36  28  75 N6        30.12R
SIOUX LOOKOUT  PTCLDY    25  14  63 N8        30.21R WCI  16
TORONTO        CLEAR     39  28  65 W3        30.09F
BIG TROUT LK   CLEAR      7   0  72 N5        30.25S WCI  -2
PICKLE LAKE    NOT AVBL
DRYDEN         PTCLDY    27  18  69 N8        30.21R WCI  18
KENORA         PTCLDY    27  14  59 N9        30.24R WCI  17
$$
                *** MANITOBA***

CITY           SKY/WX    TMP DP  RH WIND       PRES   REMARKS
BRANDON        MOCLDY    27  21  80 E8        30.29S WCI  18
DAUPHIN        PTCLDY    25  19  80 W3        30.30F
ISLAND LAKE    CLEAR      9   3  78 N3        30.34S
PILOT MOUND      N/A     27  12  54 NE16        N/A  WCI  14
THE PAS        CLEAR     21  10  63 NE3       30.35R
THOMPSON       CLEAR     -6 -13  71 CALM      30.36F
WINNIPEG       CLOUDY    27  18  69 NE12      30.31S WCI  16
LYNN LAKE      CLEAR     -4  -9  77 SW8       30.34S WCI -19
CHURCHILL      FLURRIES  -6  -9  84 NW9       30.35S WCI -22
GILLAM         CLEAR     -6  -9  84 VRB2      30.35S
$$
                ***SASKATCHEWAN***

CITY           SKY/WX    TMP DP  RH WIND       PRES   REMARKS
ESTEVAN        FLURRIES  34  28  80 E20G29    30.17S WCI  22
KINDERSLEY     MOCLDY    32  28  86 E24G32    30.06F WCI  19
LLOYDMINSTER   CLOUDY    32  23  69 E12       30.15F WCI  23
PRINCE ALBERT  PTCLDY    27  18  69 E10       30.25F WCI  17
REGINA         CLOUDY    37  27  65 E15       30.17S
YORKTON        CLOUDY    30  25  80 SE8       30.24F WC



USA.gov is the U.S. government's official web portal to all federal, state and local government web resources and services.